Kazan, Russia

11:34 AM MSK on December 11, 2019 (GMT +0300)
Kazan

Weather History for UWKD - October, 2019

Change the Weather History Date:

Monday, October 14, 2019

  Actual Average (WUND) Record (WUND)
Temperature  
Mean Temperature 48 °F -  
Max Temperature 53 °F - - (-1)
Min Temperature 44 °F - - (-1)
Degree Days  
Heating Degree Days 16    
Moisture  
Dew Point 41 °F    
Average Humidity 75    
Maximum Humidity 87    
Minimum Humidity 58    
Precipitation  
Precipitation 0.00 in - - ()
Sea Level Pressure  
Sea Level Pressure 29.82 in    
Wind  
Wind Speed 10 mph ()    
Max Wind Speed 18 mph    
Max Gust Speed 29 mph    
Visibility 6.1 miles    
Events Rain    
Averages and records for this station are not official NWS values.
T = Trace of Precipitation, MM = Missing Value Source: Averaged Metar Reports

Daily Weather History Graph

Daily Weather History Graph

Search for Another Location

Airport or City:

Astronomy

Oct. 14, 2019 Rise Set
Actual Time 6:10 AM MSK 4:46 PM MSK
Civil Twilight 5:33 AM MSK 5:23 PM MSK
Nautical Twilight 4:50 AM MSK 6:06 PM MSK
Astronomical Twilight 4:07 AM MSK 6:48 PM MSK
Moon 5:28 PM MSK (10/14) 6:12 AM MSK (10/14)
Length of Visible Light 11h 50m
Length of Day
10h 36m
Full, 100% of the Moon is Illuminated
Oct 14
Full
Oct 21
Last Quarter
Oct 28
New
Nov 4
First Quarter
Nov 12
Full

Hourly Weather History & Observations

Time (MSK) Temp. Windchill Dew Point Humidity Pressure Visibility Wind Dir Wind Speed Gust Speed Precip Events Conditions
12:00 AM 50 °F - 42 °F 65% 29.69 in 6 mi West 11.2 mph - -   Mostly Cloudy
1:00 AM 48.2 °F - 41.0 °F 76% 29.68 in 6.2 mi West 11.2 mph 22.4 mph N/A   Scattered Clouds
1:30 AM 48.2 °F - 41.0 °F 76% 29.68 in 6.2 mi West 13.4 mph - N/A   Scattered Clouds
3:00 AM 49 °F - 42 °F 69% 29.72 in 6 mi West 11.2 mph - -   Mostly Cloudy
3:00 AM 48.2 °F - 41.0 °F 76% 29.71 in 6.2 mi West 13.4 mph 24.6 mph N/A   Mostly Cloudy
4:00 AM 48.2 °F - 39.2 °F 71% 29.71 in 6.2 mi West 13.4 mph 24.6 mph N/A   Mostly Cloudy
4:30 AM 46.4 °F 39.9 °F 39.2 °F 76% 29.74 in 6.2 mi West 15.7 mph 26.8 mph N/A   Mostly Cloudy
5:00 AM 46.4 °F 41.2 °F 39.2 °F 76% 29.74 in 6.2 mi West 11.2 mph 22.4 mph N/A   Mostly Cloudy
6:00 AM 47 °F - 40 °F 69% 29.77 in 6 mi West 6.7 mph - -  
6:00 AM 44.6 °F 38.2 °F 37.4 °F 76% 29.74 in 6.2 mi West 13.4 mph - N/A   Partly Cloudy
7:00 AM 46.4 °F 41.2 °F 41.0 °F 81% 29.77 in 6.2 mi West 11.2 mph - N/A   Mostly Cloudy
7:30 AM 46.4 °F 43.0 °F 42.8 °F 87% 29.77 in 5.6 mi WNW 6.7 mph - N/A Rain Light Rain Showers
8:00 AM 48.2 °F - 42.8 °F 82% 29.77 in 6.2 mi West 13.4 mph - N/A   Mostly Cloudy
9:00 AM 50 °F - 44 °F 73% 29.81 in 6 mi West 8.9 mph - -   Partly Cloudy
9:00 AM 50.0 °F - 42.8 °F 76% 29.80 in 6.2 mi West 13.4 mph 24.6 mph N/A   Mostly Cloudy
9:30 AM 50.0 °F - 42.8 °F 76% 29.80 in 6.2 mi West 15.7 mph 26.8 mph N/A   Mostly Cloudy
10:30 AM 51.8 °F - 41.0 °F 67% 29.80 in 6.2 mi West 15.7 mph 26.8 mph N/A   Mostly Cloudy
11:00 AM 53.6 °F - 39.2 °F 58% 29.83 in 6.2 mi WNW 15.7 mph 26.8 mph N/A   Mostly Cloudy
11:30 AM 51.8 °F - 41.0 °F 67% 29.83 in 6.2 mi WNW 17.9 mph 29.1 mph N/A   Mostly Cloudy
12:00 PM 51 °F - 43 °F 65% 29.85 in 6 mi West 8.9 mph - - Rain Light Rain Showers
1:00 PM 48.2 °F - 41.0 °F 76% 29.86 in 5.0 mi West 15.7 mph 26.8 mph N/A Rain Light Rain Showers
1:30 PM 48.2 °F - 44.6 °F 87% 29.86 in 5.0 mi WNW 13.4 mph - N/A Rain Light Rain Showers
2:00 PM 48.2 °F - 44.6 °F 87% 29.86 in 6.2 mi WNW 15.7 mph - N/A Rain Light Rain Showers
2:30 PM 48.2 °F - 44.6 °F 87% 29.86 in 6.2 mi WNW 15.7 mph - N/A   Mostly Cloudy
3:00 PM 50 °F - 45 °F 76% 29.89 in 6 mi West 6.7 mph - -   Partly Cloudy
4:00 PM 50.0 °F - 42.8 °F 76% 29.89 in 6.2 mi West 13.4 mph - N/A   Mostly Cloudy
4:30 PM 50.0 °F - 41.0 °F 71% 29.89 in 6.2 mi West 15.7 mph - N/A   Mostly Cloudy
5:00 PM 48.2 °F - 39.2 °F 71% 29.89 in 6.2 mi West 13.4 mph - N/A   Mostly Cloudy
6:00 PM 48 °F - 43 °F 76% 29.94 in 6 mi West 4.5 mph - -  
6:00 PM 48.2 °F - 41.0 °F 76% 29.92 in - West 6.7 mph - N/A   Clear
6:30 PM 46.4 °F 42.0 °F 39.2 °F 76% 29.92 in - West 8.9 mph - N/A   Clear
8:00 PM 44.6 °F 39.8 °F 39.2 °F 81% 29.92 in - WSW 8.9 mph - N/A   Clear
8:30 PM 46.4 °F 42.0 °F 39.2 °F 76% 29.92 in - West 8.9 mph - N/A   Clear
9:00 PM 46 °F - 42 °F 79% 29.94 in 6 mi South 2.2 mph - -   Partly Cloudy
9:00 PM 46.4 °F 43.0 °F 39.2 °F 76% 29.92 in 6.2 mi West 6.7 mph - N/A   Scattered Clouds
9:30 PM 46.4 °F 43.0 °F 39.2 °F 76% 29.89 in 6.2 mi WSW 6.7 mph - N/A   Scattered Clouds
10:00 PM 44.6 °F 40.8 °F 39.2 °F 81% 29.89 in 6.2 mi WSW 6.7 mph - N/A   Mostly Cloudy
11:00 PM 46.4 °F 44.4 °F 39.2 °F 76% 29.86 in - SSW 4.5 mph - N/A   Clear